Regional Weather Roundup
Issued by NWS Sterling, VA

Home | Current Version | Previous Version | Text Only | Print | Product List | Glossary Off
Versions: 1 2 3 4 5 6 7 8 9 10 11 12 13 14 15 16 17 18 19 20 21 22 23 24 25 26 27 28 29 30 31 32 33 34 35 36 37 38 39 40 41 42 43 44 45 46 47 48 49 50

000
ASUS41 KLWX 282110
RWRLWX

REGIONAL WEATHER ROUNDUP
NATIONAL WEATHER SERVICE BALTIMORE MD/WASHINGTON DC
400 PM EST SAT FEB 28 2015

Note: "FAIR" indicates few or no clouds below 12,000 feet
with no significant weather and/or obstructions to visibility.
 TC=TEMPERATURE CELSIUS

 * =Non NWS site. Station does not report precipitation (e.g. rain,
    snow, etc.), thunder, or fog.

DCZ001-MDZ009-015-VAZ040>042-051-053>054-282200-
WASHINGTON METRO

CITY           SKY/WX    TMP DP  RH WIND       PRES   REMARKS
WASHINGTON NAT MOSUNNY   32   4  30 SE3       30.77F
DULLES         MOSUNNY   29  -3  25 CALM      30.76S
ANDREWS AFB    MOSUNNY   30   2  29 VRB1      30.75F
FT BELVOIR     MOSUNNY   30   1  28 VRB2      30.77S
QUANTICO       MOSUNNY   30   5  34 E3        30.79S
COLLEGE PARK*  MOSUNNY   32   0  25 CALM      30.76F
LEESBURG*      SUNNY     30   5  34 CALM      30.76S
MANASSAS*      SUNNY     28   5  37 CALM      30.77S
GAITHERSBURG*  SUNNY     28   0  29 CALM      30.77S

$$

MDZ006>007-011-014-282200-
BALTIMORE METRO

CITY           SKY/WX    TMP DP  RH WIND       PRES   REMARKS
BWI AIRPORT    MOSUNNY   29  -1  27 E5        30.75F
MD SCIENCE CTR   N/A     28   2  32 MISG      30.72F
MARTIN STATE   MOSUNNY   27   9  46 SE7       30.79F
ANNAPOLIS      MOSUNNY   26   7  44 SE6       30.78F
FORT MEADE*    MOSUNNY   30   0  27 CALM      30.78F

$$

MDZ012-015-019>023-282200-
MARYLAND EASTERN SHORE

CITY           SKY/WX    TMP DP  RH WIND       PRES   REMARKS
OCEAN CITY     SUNNY     27  10  49 E9        30.78F WCI  18
SALISBURY      SUNNY     32   7  35 NW5       30.77F
BAY BRIDGE AP*   N/A     28   0  29 CALM      30.78F
CAMBRIDGE*     MOSUNNY   32   9  37 CALM      30.77F
EASTON*        MOSUNNY   30   9  40 CALM      30.81F

$$

MDZ017>025-282200-
SOUTHERN MARYLAND

CITY           SKY/WX    TMP DP  RH WIND       PRES   REMARKS
PATUXENT RIVER PTSUNNY   26   7  44 NE3       30.78F
ST INIGOES     MOSUNNY   28   6  39 VRB3      30.78S
LEONARDTOWN*   MOSUNNY   28   9  43 N3        30.78F

$$

MDZ003>005-282200-
NORTH CENTRAL MARYLAND

CITY           SKY/WX    TMP DP  RH WIND       PRES   REMARKS
FREDERICK*     SUNNY     30 -15  13 CALM      30.78F
HAGERSTOWN APT SUNNY     28  -5  23 CALM      30.71F
WESTMINSTER*   SUNNY     27  -6  24 CALM      30.71F

$$

MDZ501>502-282200-
WESTERN MARYLAND

CITY           SKY/WX    TMP DP  RH WIND       PRES   REMARKS
OAKLAND*       CLOUDY    27  -8  22 SE6       30.50S
CUMBERLAND*    SUNNY     34   3  27 SW3       30.70F

$$

VAZ025>031-282200-
SHENANDOAH VALLEY

CITY           SKY/WX    TMP DP  RH WIND       PRES   REMARKS
WINCHESTER*    PTSUNNY   32   0  25 S5        30.70F
FRONT ROYAL*   FAIR      30   7  37 NE6       30.69F
LURAY*         FAIR      34  14  44 W3        30.67F
NEW MARKET*    FAIR      29  11  47 CALM      30.66F
STAUNTON*      SUNNY     30   9  41 S7        30.67S
WAYNESBORO*    FAIR      29   9  42 CALM      30.63F

$$

WVZ021-048>050-054>055-282200-
EASTERN WEST VIRGINIA PANHANDLE

CITY           SKY/WX    TMP DP  RH WIND       PRES   REMARKS
MARTINSBURG    SUNNY     29   0  28 E6        30.72S
PETERSBURG*    NOT AVBL

$$

VAZ036>039-050-282200-
CENTRAL FOOTHILLS

CITY           SKY/WX    TMP DP  RH WIND       PRES   REMARKS
CHARLOTTESVILL SUNNY     30   7  37 CALM      30.70F
CULPEPER*      SUNNY     30   3  31 CALM      30.75F
ORANGE*        SUNNY     30   7  37 CALM      30.74F
GORDONSVILLE*  FAIR      30   6  35 NE3       30.72F
WARRENTON*     FAIR      32  11  41 CALM      30.74S

$$

VAZ055>057-282200-
NORTH AND CENTRAL PIEDMONT

CITY           SKY/WX    TMP DP  RH WIND       PRES   REMARKS
FREDERICKSBRG* MOSUNNY   34   6  32 CALM      30.76S
STAFFORD*      MOSUNNY   32   1  26 N5        30.79S

$$

NCZ024-NYZ072-PAZ021-071-VAZ022-071-282200-
OTHER REGIONAL OBSERVATIONS

CITY           SKY/WX    TMP DP  RH WIND       PRES   REMARKS
NEW YORK CITY  SUNNY     28  -1  28 W5        30.76F
PHILADELPHIA   MOSUNNY   31  -5  21 CALM      30.77F
PITTSBURGH     MOSUNNY   25  -1  32 E5        30.63F
ROANOKE        MOSUNNY   31  11  43 E6        30.67F
RICHMOND       PTSUNNY   35   7  31 CALM      30.74F
RALEIGH        PTSUNNY   37  13  37 E9        30.69F

$$

ANZ530>537-282200-
MARINE OBSERVATIONS

STATION/POSITION TIME  TEMP    WIND        PRES
                       AIR SEA DIR/SP/G
                 (UTC) (F)     (DEG/KT/KT) (MB)
THOMAS PT LIGHT  2100   25 32   90/  3/  4 1043.3F
BALT KEY BRIDGE  2000   26     120/  5/  7 1042.4F
COVE POINT       2000   22      40/  4/  5 1042.5F
LEWISETTA        2000   25 33     CALM     1042.2F
SOLOMONS ISLAND  2000      33                N/A

$$



USA.gov is the U.S. government's official web portal to all federal, state and local government web resources and services.